Weather History for KERI - January, 2014

Change the Weather History Date:

Saturday, January 18, 2014

  Actual Average Record
Temperature  
Mean Temperature 18 °F 27 °F  
Max Temperature 24 °F 34 °F 65 °F (1929)
Min Temperature 12 °F 20 °F -10 °F (1994)
Degree Days  
Heating Degree Days 47 38  
Month to date heating degree days 703 676  
Since 1 July heating degree days 2945 2844  
Cooling Degree Days 0 0  
Month to date cooling degree days 0 0  
Year to date cooling degree days 0 0  
Moisture  
Dew Point 9 °F    
Average Humidity 71    
Maximum Humidity 84    
Minimum Humidity 57    
Precipitation  
Precipitation 0.03 in 0.09 in 0.93 in (1929)
Month to date precipitation 2.11 1.83  
Year to date precipitation 2.11 1.83  
Snow  
Snow 0.70 in 1.00 in - ()
Month to date snowfall 19.2 18.3  
Since 1 July snowfall 82.8 54.5  
Snow Depth 1.00 in    
Sea Level Pressure  
Sea Level Pressure 29.94 in    
Wind  
Wind Speed 10 mph (SW)    
Max Wind Speed 21 mph    
Max Gust Speed 30 mph    
Visibility 7 miles    
Events Snow    
T = Trace of Precipitation, MM = Missing Value Source: NWS Daily Summary

Daily Weather History Graph

Daily Weather History Graph

Search for Another Location

Airport or City:

Trip Planner

Search our weather history database for the weather conditions in past years. The results will help you decide how hot, cold, wet, or windy it might be!

Date:

Astronomy

Jan. 18, 2014 Rise Set
Actual Time 7:44 AM EST 5:17 PM EST
Civil Twilight 7:14 AM EST 5:48 PM EST
Nautical Twilight 6:39 AM EST 6:22 PM EST
Astronomical Twilight 6:06 AM EST 6:56 PM EST
Moon 8:01 PM EST (1/18) 8:40 AM EST (1/18)
Length of Visible Light 10h 34m
Length of Day
9h 32m
Waning Gibbous, 94% of the Moon is Illuminated
Jan 18
Waning Gibbous
Jan 24
Last Quarter
Jan 30
New
Feb 6
First Quarter
Feb 14
Full

Hourly Weather History & Observations

Time (EST) Temp. Windchill Dew Point Humidity Pressure Visibility Wind Dir Wind Speed Gust Speed Precip Events Conditions
12:19 AM 21.2 °F 6.0 °F 17.6 °F 86% 29.87 in 2.0 mi West 19.6 mph 29.9 mph 0.00 in Snow Light Snow
12:51 AM 21.9 °F 11.7 °F 17.1 °F 82% 29.91 in 3.0 mi WSW 9.2 mph - 0.00 in Snow Light Snow
1:01 AM 21.2 °F 10.1 °F 17.6 °F 86% 29.89 in 2.5 mi WSW 10.4 mph 18.4 mph 0.00 in Snow Light Snow
1:10 AM 21.2 °F 7.8 °F 15.8 °F 80% 29.89 in 1.2 mi WSW 15.0 mph 24.2 mph 0.00 in Snow Light Snow
1:51 AM 19.9 °F 11.1 °F 15.1 °F 81% 29.92 in 2.0 mi WSW 6.9 mph - 0.00 in Snow Light Snow
2:04 AM 19.4 °F 10.4 °F 15.8 °F 86% 29.90 in 3.0 mi WSW 6.9 mph - 0.00 in Snow Light Snow
2:06 AM 19.4 °F 11.5 °F 15.8 °F 86% 29.90 in 3.0 mi SW 5.8 mph - 0.00 in Snow Light Snow
2:14 AM 19.4 °F 7.9 °F 14.0 °F 80% 29.90 in 3.0 mi SW 10.4 mph - 0.00 in Snow Light Snow
2:43 AM 17.6 °F 5.7 °F 10.4 °F 73% 29.91 in 5.0 mi SW 10.4 mph - 0.00 in   Haze
2:51 AM 18.0 °F 5.4 °F 10.9 °F 74% 29.94 in 7.0 mi SW 11.5 mph - 0.00 in   Overcast
3:51 AM 16.0 °F 1.1 °F 5.0 °F 62% 29.94 in 10.0 mi SW 15.0 mph - N/A   Overcast
4:32 AM 14.0 °F -0.8 °F 3.2 °F 62% 29.91 in 10.0 mi SW 13.8 mph 20.7 mph N/A   Overcast
4:51 AM 14.0 °F 1.2 °F 3.0 °F 62% 29.95 in 10.0 mi SW 10.4 mph - N/A   Mostly Cloudy
5:02 AM 14.0 °F 0.5 °F 3.2 °F 62% 29.91 in 10.0 mi SSW 11.5 mph - N/A   Mostly Cloudy
5:51 AM 12.9 °F -0.9 °F 3.0 °F 65% 29.95 in 10.0 mi SW 11.5 mph - N/A   Overcast
6:51 AM 12.9 °F -0.9 °F 3.9 °F 67% 29.96 in 8.0 mi SSW 11.5 mph - 0.00 in Snow Light Snow
7:17 AM 12.2 °F -1.8 °F 5.0 °F 73% 29.93 in 2.5 mi SSW 11.5 mph - 0.00 in Snow Light Snow
7:30 AM 12.2 °F -2.5 °F 6.8 °F 79% 29.93 in 4.0 mi SSW 12.7 mph - 0.00 in Snow Light Snow
7:51 AM 12.0 °F -4.0 °F 5.0 °F 73% 29.96 in 4.0 mi SSW 15.0 mph - 0.00 in Snow Light Snow
8:01 AM 12.2 °F -2.5 °F 6.8 °F 79% 29.93 in 2.0 mi SSW 12.7 mph - 0.00 in Snow Light Snow
8:15 AM 12.2 °F -2.5 °F 6.8 °F 79% 29.92 in 4.0 mi SSW 12.7 mph 19.6 mph 0.00 in Snow Light Snow
8:51 AM 12.9 °F 0.7 °F 6.1 °F 74% 29.97 in 3.0 mi SSW 9.2 mph - 0.00 in Snow Light Snow
9:24 AM 14.0 °F 1.2 °F 6.8 °F 73% 29.95 in 2.0 mi SSW 10.4 mph - 0.00 in Snow Light Snow
9:51 AM 14.0 °F 1.2 °F 8.1 °F 77% 29.99 in 2.5 mi SSW 10.4 mph - 0.00 in Snow Light Snow
10:27 AM 15.8 °F 0.9 °F 8.6 °F 73% 29.95 in 3.0 mi SSW 15.0 mph - 0.00 in Snow Light Snow
10:51 AM 16.0 °F 2.3 °F 8.1 °F 71% 29.99 in 3.0 mi SSW 12.7 mph 19.6 mph 0.00 in Snow Light Snow
10:58 AM 15.8 °F 0.3 °F 8.6 °F 73% 29.95 in 2.5 mi SW 16.1 mph 19.6 mph 0.00 in Snow Light Snow
11:18 AM 17.6 °F 2.2 °F 8.6 °F 68% 29.95 in 3.0 mi SSW 17.3 mph - 0.00 in Snow Light Snow
11:51 AM 18.0 °F 7.7 °F 9.0 °F 68% 29.98 in 10.0 mi SW 8.1 mph - 0.00 in   Overcast
12:14 PM 17.6 °F 3.7 °F 8.6 °F 68% 29.94 in 10.0 mi SW 13.8 mph - N/A   Overcast
12:51 PM 19.0 °F 6.8 °F 8.1 °F 62% 29.97 in 10.0 mi SSW 11.5 mph - N/A   Overcast
1:51 PM 19.0 °F 9.0 °F 8.1 °F 62% 29.97 in 10.0 mi WSW 8.1 mph - N/A   Overcast
2:51 PM 19.9 °F 10.1 °F 8.1 °F 60% 29.96 in 10.0 mi SW 8.1 mph - N/A   Overcast
3:38 PM 21.2 °F 13.6 °F 8.6 °F 58% 29.92 in 10.0 mi West 5.8 mph - N/A   Overcast
3:51 PM 21.0 °F 11.4 °F 12.0 °F 68% 29.97 in 10.0 mi West 8.1 mph - N/A   Overcast
4:18 PM 21.2 °F 12.6 °F 12.2 °F 68% 29.93 in 10.0 mi WSW 6.9 mph - N/A   Overcast
4:39 PM 21.2 °F 11.7 °F 8.6 °F 58% 29.93 in 10.0 mi South 8.1 mph - N/A   Overcast
4:51 PM 21.0 °F 9.3 °F 8.1 °F 57% 29.97 in 10.0 mi South 11.5 mph - N/A   Overcast
5:51 PM 18.0 °F 8.7 °F 7.0 °F 62% 29.97 in 10.0 mi South 6.9 mph - N/A   Clear
6:51 PM 17.1 °F 6.6 °F 7.0 °F 65% 29.96 in 10.0 mi South 8.1 mph - N/A   Clear
7:51 PM 17.1 °F 7.6 °F 7.0 °F 65% 29.97 in 10.0 mi South 6.9 mph - N/A   Clear
8:51 PM 16.0 °F 6.3 °F 7.0 °F 68% 29.95 in 10.0 mi South 6.9 mph - N/A   Clear
9:51 PM 16.0 °F 3.6 °F 7.0 °F 68% 29.93 in 10.0 mi South 10.4 mph - N/A   Mostly Cloudy
10:51 PM 16.0 °F 3.6 °F 6.1 °F 65% 29.91 in 10.0 mi South 10.4 mph - N/A   Clear
11:51 PM 16.0 °F 4.4 °F 7.0 °F 68% 29.88 in 10.0 mi South 9.2 mph - N/A   Overcast